Miscellaneous Local Product
Issued by NWS Hastings, NE

Home | Current Version | Previous Version | Text Only | Print | Product List | Glossary On
Versions: 1 2 3 4 5 6 7 8 9 10 11 12 13 14 15 16 17 18 19 20 21 22 23 24 25 26 27 28 29 30 31 32 33 34 35 36 37 38 39 40 41 42 43 44 45 46 47 48 49 50
000
AXUS43 KGID 020202
MISGRI

GID CWA HOURLY WEATHER ROUNDUP
NATIONAL WEATHER SERVICE HASTINGS NE
800 PM CST SUN FEB 01 2015

NOTE: "FAIR" INDICATES FEW OR NO CLOUDS BELOW 12,000 FEET WITH NO
SIGNIFICANT WEATHER AND/OR OBSTRUCTIONS TO VISIBILITY.

...SOUTH CENTRAL NEBRASKA...

CITY           SKY/WX    TMP DP  RH WIND       PRES   REMARKS
GRAND ISLAND   CLEAR      4  -3  73 NW16      30.34R WCI -15
HASTINGS       CLEAR      4  -2  76 NW21      30.31R WCI -17
KEARNEY        CLEAR      3  -2  78 NW15      30.33R WCI -15
ORD            PTCLDY     2  -5  72 NW14      30.32F WCI -16
YORK           PTCLDY     5   0  78 N17G23    30.31R WCI -14
AURORA         CLEAR      3  -2  78 N17       30.32R WCI -17
LEXINGTON      CLEAR      6  -1  74 NW12      30.32R WCI -10
HOLDREGE       CLEAR      6  -1  73 NW12      30.31R WCI -10
HEBRON         CLEAR      7   1  75 N12       30.33R WCI  -8

...NEBRASKA PANHANDLE...

CITY           SKY/WX    TMP DP  RH WIND       PRES   REMARKS
CHADRON        PTCLDY     4  -1  80 CALM      30.18F
ALLIANCE       PTCLDY    -8 -12  83 S7        30.17F WCI -23
SCOTTSBLUFF    PTCLDY     8  32 100 E9        30.17F WCI  -5
SIDNEY         PTCLDY     2  -2  83 S3        30.18F

...WESTERN AND NORTH CENTRAL NEBRASKA...

CITY           SKY/WX    TMP DP  RH WIND       PRES   REMARKS
VALENTINE      MOCLDY    -9 -12  87 W3        30.28F
AINSWORTH      PTCLDY    -3  -7  82 W6        30.29F WCI -15
ONEILL         PTCLDY    -1  -5  81 NW8       30.33F WCI -15
BROKEN BOW     PTCLDY     3  -3  76 NW15      30.29S WCI -16
IMPERIAL       PTCLDY     5  -1  76 W7        30.28S WCI  -7
NORTH PLATTE   PTCLDY     0  -4  83 CALM      30.30F
MCCOOK         CLEAR      9   0  67 NW9       30.32S WCI  -4

...EASTERN NEBRASKA...

CITY           SKY/WX    TMP DP  RH WIND       PRES   REMARKS
NORFOLK        MOCLDY     3  -3  76 NW14      30.33R WCI -15
SO SIOUX CITY  PTCLDY     5  -1  76 NW21      30.32R WCI -16
TEKAMAH        MOCLDY     7   1  76 NW20      30.32R WCI -13
ALBION         CLEAR      2  -4  73 NW13      30.32S WCI -15
OMAHA EPPLEY   MOCLDY     9   4  80 NW20      30.29R WCI -10
OFFUTT AFB     PTCLDY    10   3  72 NW17G23   30.28R WCI  -7
MILLARD        MOCLDY     9   3  77 NW5       30.30R WCI   1
LINCOLN        FLURRIES   6   0  76 NW20      30.33R WCI -14
NEBRASKA CITY  CLOUDY    10   6  81 N20       30.24R HAZE    WCI  -8
BEATRICE       PTCLDY     6   1  80 N16       30.30R HAZE    WCI -12
FALLS CITY     LGT SNOW  11   7  84 NW15G26   30.24R FOG     WCI  -5

...NORTHERN KANSAS...

CITY           SKY/WX    TMP DP  RH WIND       PRES   REMARKS
GOODLAND       CLEAR      9   4  80 N8        30.26R WCI  -3
HILL CITY      CLEAR     11   3  70 N8        30.35R WCI  -1
NORTON         CLEAR      9   0  66 NW16      30.32R WCI  -9
PHILLIPSBURG   CLEAR     12   3  67 NW13G21   30.37R WCI  -3
SMITH CENTER   CLEAR      9   1  72 NW17      30.35R WCI -10
BELOIT         CLEAR     10   3  72 NW14G20   30.36R WCI  -5
HAYS           CLEAR     12  -2  52 N22G30    30.33R WCI  -7
RUSSELL        PTCLDY    12   6  77 N23       30.32R WCI  -7
CONCORDIA      PTCLDY     8   2  76 N17G26    30.33R WCI -10
SALINA         FLURRIES  13   6  74 N23       30.35R WCI  -6
TOPEKA         FLURRIES  13   6  74 NW20G31   30.25R WCI  -5



USA.gov is the U.S. government's official web portal to all federal, state and local government web resources and services.